Location: Albuquerque Trailhead
(34.7934°N, 106.3736°W)
Time: 02:21:30
(UTC+00:00)

Cosmos 1844 Rocket - Pass Details

Date: 20 June 2021
Orbit: 823 x 846 km, 71.0° (Epoch: 27 July)

Event Time Altitude Azimuth Distance (km) Brightness Sun altitude
Rises 04:15:18 0° 341° (NNW) 3,409 7.1 -18.9°
Reaches altitude 10° 04:17:46 10° 344° (NNW) 2,472 6.1 -19.3°
Maximum altitude 04:23:26 69° 68° (ENE) 901 2.7 -20.0°
Enters shadow 04:25:30 40° 139° (SE) 1,234 3.0 -20.3°
